Location: São Paulo
(23.5507°S, 46.6334°W)
Time: 06:52:02
(UTC-03:00)

Transit 2A - Pass Details

Date: 20 February 2026
Orbit: 590 x 954 km, 66.7° (Epoch: 10 March)

Event Time Altitude Azimuth Distance (km) Brightness Sun altitude
Rises 08:35:41 0° 178° (S) 3,051 9.1 35.2°
Reaches altitude 10° 08:38:55 10° 154° (SSE) 2,200 8.7 36.0°
Maximum altitude 08:41:49 15° 119° (ESE) 1,921 9.1 36.6°
Drops below altitude 10° 08:44:52 10° 83° (E) 2,329 9.8 37.3°
Sets 08:48:25 0° 61° (ENE) 3,334 10.1 38.1°
